Visibility
15.0 15.0 15.0 15.0 15.0 15.0 15.0 14.1 0.0 15.0 10.0 0.0 0.1 0.1 15.0 14.8 15.0 15.0 15.0 15.0 15.0 15.0 15.0 15.0 15.0 15.0 15.0 15.0 15.0 15.0 15.0 8.5 3.5 15.0 15.0 15.0 15.0 15.0 15.0 15.0 15.0 15.0 14.8 15.0
15.0 15.0 15.0 15.0 15.0 15.0 15.0 11.6 8.7 15.0 5.5 0.0 0.0 14.3 9.6 14.1 15.0 14.7 15.0 15.0 15.0 15.0 15.0 15.0 15.0 15.0 15.0 15.0 15.0 15.0 15.0 4.7 0.0 15.0 15.0 15.0 15.0 15.0 15.0 13.0 15.0 15.0 15.0 14.5
15.0 15.0 15.0 15.0 15.0 15.0 10.4 0.4 0.0 0.1 7.5 12.5 13.0 13.4 6.5 2.3 15.0 15.0 15.0 15.0 15.0 15.0 15.0 15.0 15.0 15.0 15.0 15.0 15.0 15.0 15.0 3.7 0.0 0.0 10.8 15.0 15.0 15.0 15.0 13.7 10.2 15.0 15.0 15.0
15.0 15.0 15.0 15.0 15.0 15.0 4.9 0.2 0.0 11.1 0.0 0.1 4.4 7.8 11.4 3.7 4.5 15.0 15.0 15.0 15.0 15.0 13.6 15.0 15.0 15.0 15.0 15.0 15.0 15.0 15.0 12.8 15.0 5.2 8.9 15.0 15.0 15.0 15.0 15.0 15.0 10.7 15.0 15.0
15.0 15.0 15.0 15.0 15.0 15.0 4.0 0.1 0.0 0.7 12.6 14.9 11.6 14.9 12.1 3.0 10.7 15.0 15.0 15.0 15.0 15.0 10.3 15.0 15.0 15.0 15.0 15.0 15.0 15.0 15.0 8.2 15.0 15.0 15.0 15.0 15.0 14.9 15.0 15.0 15.0 15.0 15.0 15.0
15.0 15.0 15.0 15.0 15.0 13.9 9.8 15.0 10.9 4.0 11.6 14.8 3.8 1.1 14.9 15.0 15.0 15.0 15.0 15.0 10.3 10.5 15.0 15.0 15.0 15.0 15.0 15.0 10.0 7.8 15.0 5.5 3.3 0.5 14.0 2.9 0.8 15.0 15.0 15.0 15.0 15.0 10.0 15.0
15.0 15.0 15.0 15.0 15.0 12.6 12.6 14.2 12.6 0.0 0.0 7.4 13.4 15.0 15.0 15.0 15.0 15.0 15.0 15.0 7.0 15.0 15.0 15.0 13.2 10.7 15.0 12.7 15.0 15.0 5.2 0.1 2.0 1.2 10.9 0.1 14.8 15.0 15.0 15.0 15.0 15.0 15.0 15.0
15.0 15.0 15.0 15.0 15.0 15.0 7.8 15.0 1.5 0.1 0.1 4.8 11.7 15.0 15.0 15.0 15.0 13.9 15.0 15.0 15.0 15.0 8.5 3.8 0.1 2.7 3.6 15.0 15.0 15.0 15.0 12.1 0.0 2.5 15.0 14.0 15.0 15.0 15.0 14.4 15.0 15.0 15.0 15.0
15.0 15.0 15.0 15.0 15.0 14.9 9.8 14.7 12.1 0.4 0.0 3.3 15.0 15.0 15.0 15.0 15.0 12.4 15.0 15.0 15.0 9.0 9.9 0.1 0.1 0.3 1.9 3.8 15.0 15.0 15.0 15.0 0.2 2.2 1.5 15.0 15.0 15.0 15.0 15.0 4.2 15.0 15.0 15.0
15.0 15.0 15.0 15.0 14.4 15.0 5.5 12.4 13.8 1.5 0.0 3.3 15.0 15.0 15.0 15.0 15.0 14.5 15.0 15.0 12.4 10.8 6.3 0.8 0.1 0.1 9.4 1.7 10.1 15.0 12.7 1.5 9.2 13.3 6.4 13.9 15.0 15.0 15.0 15.0 6.2 15.0 15.0 15.0
15.0 15.0 15.0 15.0 9.6 15.0 2.7 8.6 15.0 3.3 0.0 3.1 15.0 15.0 8.7 2.6 5.7 2.3 15.0 3.8 10.6 3.8 0.2 1.3 12.1 1.2 12.9 5.9 15.0 15.0 12.8 12.5 15.0 2.2 0.2 0.2 15.0 15.0 15.0 15.0 15.0 15.0 15.0 15.0
15.0 15.0 15.0 15.0 15.0 15.0 15.0 0.0 8.9 8.4 0.1 2.7 15.0 15.0 15.0 15.0 15.0 12.2 13.6 5.5 11.9 13.2 1.8 0.4 11.0 2.6 15.0 14.5 15.0 15.0 15.0 14.4 5.8 14.9 14.3 15.0 15.0 15.0 15.0 15.0 15.0 15.0 15.0 15.0
15.0 15.0 15.0 15.0 15.0 15.0 2.4 1.8 11.5 1.1 0.1 0.1 0.1 0.2 15.0 15.0 15.0 15.0 8.2 1.1 15.0 15.0 15.0 15.0 10.7 2.3 15.0 15.0 15.0 15.0 15.0 15.0 4.2 0.5 14.3 15.0 15.0 15.0 15.0 15.0 15.0 13.6 14.1 6.0
15.0 15.0 15.0 15.0 15.0 15.0 15.0 0.8 7.8 13.1 0.2 0.0 0.1 15.0 15.0 15.0 15.0 15.0 10.3 3.7 12.1 13.3 12.2 3.5 0.0 0.0 14.5 15.0 15.0 15.0 15.0 15.0 15.0 15.0 15.0 15.0 15.0 15.0 15.0 15.0 15.0 15.0 5.2 13.6
15.0 15.0 15.0 15.0 15.0 15.0 15.0 15.0 15.0 15.0 4.3 0.0 0.1 15.0 15.0 15.0 15.0 15.0 15.0 12.8 7.1 5.4 2.3 0.0 0.0 15.0 0.2 1.5 13.9 15.0 15.0 15.0 15.0 15.0 15.0 15.0 15.0 15.0 15.0 15.0 15.0 15.0 15.0 15.0
15.0 15.0 9.4 15.0 15.0 15.0 15.0 0.4 4.3 4.1 14.7 0.1 0.0 11.0 15.0 15.0 15.0 9.1 14.0 14.4 12.1 4.1 0.0 0.1 14.7 14.5 6.0 0.0 2.2 15.0 15.0 15.0 15.0 15.0 15.0 15.0 15.0 15.0 15.0 15.0 15.0 15.0 15.0 15.0
15.0 14.9 8.1 15.0 6.0 7.3 4.1 3.5 8.5 15.0 7.4 0.1 0.1 0.3 15.0 15.0 11.4 10.0 15.0 15.0 9.3 0.7 0.1 0.0 12.1 7.2 13.3 3.0 15.0 15.0 15.0 15.0 15.0 15.0 15.0 15.0 15.0 15.0 15.0 15.0 15.0 15.0 15.0 15.0
15.0 10.3 10.0 15.0 15.0 15.0 8.4 15.0 15.0 15.0 6.2 4.3 4.4 0.1 0.0 13.0 0.0 0.0 0.6 0.0 0.3 0.1 0.2 0.2 9.4 8.6 7.2 0.2 15.0 15.0 15.0 15.0 15.0 15.0 15.0 15.0 15.0 15.0 15.0 15.0 15.0 4.0 8.1 15.0
15.0 3.9 7.3 15.0 15.0 1.4 0.3 15.0 15.0 15.0 4.0 4.1 12.0 14.6 0.1 14.2 0.5 0.0 0.1 0.0 0.0 0.2 0.1 13.0 15.0 14.9 15.0 15.0 15.0 15.0 15.0 15.0 15.0 15.0 15.0 15.0 15.0 15.0 15.0 15.0 13.9 2.0 11.0 15.0
10.1 3.8 0.7 0.0 5.1 15.0 15.0 13.7 11.1 4.4 13.5 14.9 15.0 13.2 0.1 12.8 9.4 3.7 0.1 0.5 12.7 0.2 2.5 14.8 1.3 15.0 15.0 15.0 15.0 15.0 15.0 15.0 15.0 15.0 15.0 15.0 15.0 15.0 15.0 15.0 14.8 12.0 3.8 15.0
2.8 0.0 0.0 1.7 13.9 11.3 0.1 0.0 0.0 0.0 0.2 15.0 15.0 15.0 15.0 15.0 10.8 5.4 4.8 0.3 5.1 0.1 12.9 12.8 12.1 15.0 15.0 8.9 6.9 7.5 11.0 15.0 15.0 15.0 14.2 15.0 10.6 15.0 15.0 15.0 13.7 8.4 15.0 15.0
3.2 2.4 3.7 2.6 0.0 0.0 0.0 0.0 4.7 5.0 15.0 15.0 12.7 13.8 15.0 15.0 15.0 14.3 15.0 11.0 9.8 14.4 15.0 1.0 15.0 15.0 15.0 15.0 15.0 15.0 15.0 15.0 15.0 15.0 8.3 7.5 15.0 15.0 15.0 13.7 4.8 15.0 15.0 12.5
4.2 0.1 0.0 0.0 0.0 0.0 0.1 0.9 12.8 15.0 14.5 15.0 15.0 0.0 0.2 15.0 15.0 0.6 2.9 3.3 13.0 15.0 14.2 13.9 15.0 14.8 15.0 15.0 15.0 15.0 15.0 15.0 15.0 15.0 11.7 11.0 13.9 6.4 3.9 4.6 5.1 13.9 15.0 15.0
0.0 0.0 0.0 0.1 0.3 5.3 12.8 10.5 15.0 15.0 15.0 15.0 15.0 0.3 15.0 14.3 6.5 3.2 3.8 15.0 14.6 3.0 14.9 15.0 15.0 15.0 15.0 15.0 15.0 15.0 15.0 15.0 15.0 15.0 15.0 15.0 15.0 5.8 5.1 8.5 7.3 9.0 15.0 15.0
0.0 0.0 0.1 1.6 7.7 9.0 13.9 15.0 15.0 15.0 15.0 15.0 15.0 15.0 15.0 12.5 0.1 15.0 14.0 7.2 14.4 11.3 12.3 10.5 15.0 15.0 15.0 15.0 15.0 1.4 0.0 0.0 0.1 9.4 9.4 0.2 0.1 0.0 0.0 0.1 6.0 15.0 15.0 15.0
0.2 8.9 3.8 13.7 15.0 5.3 5.1 15.0 15.0 15.0 15.0 15.0 15.0 10.4 7.6 15.0 15.0 5.0 14.8 13.8 8.0 0.4 15.0 15.0 15.0 15.0 4.6 0.1 0.0 0.0 0.0 0.0 0.0 0.0 0.0 0.0 0.2 3.2 8.5 15.0 15.0 15.0 15.0 11.4
6.1 12.5 14.1 15.0 15.0 13.7 13.9 15.0 15.0 15.0 15.0 6.5 15.0 15.0 15.0 15.0 8.6 4.9 14.4 2.0 0.7 15.0 15.0 15.0 15.0 0.0 0.0 0.0 0.0 0.0 0.0 0.0 0.0 0.0 0.0 0.0 0.1 1.4 3.3 0.1 0.5 15.0 15.0 13.7